Location: Casteau
(50.5142°N, 4.0161°E)
Time: 02:00:17
(UTC+00:00)

S-56A Canister/Altair - Pass Details

Date: 08 August 2021
Orbit: 632 x 2500 km, 38.9° (Epoch: 16 September)

Event Time Altitude Azimuth Distance (km) Brightness Sun altitude
Rises 17:26:25 0° 275° (W) 5,767 13.9 15.9°
Reaches altitude 10° 17:30:23 10° 268° (W) 4,930 14.0 15.2°
Maximum altitude 17:42:52 37° 209° (SSW) 3,450 11.2 13.3°
Drops below altitude 10° 17:55:24 10° 150° (SSE) 4,927 11.3 11.3°
Sets 17:59:24 0° 143° (SE) 5,761 11.5 10.7°
